Starlink 30864

operational
NORAD ID: 58243 Int'l Des: 2023-171 Owner: SPXS Country: US Constellation: starlink
LEOCIRCULAR

About Starlink 30864

Description loading...

Live Position

Loading 3D Globe...

Upcoming Passes

Altitude History

Altitude vs Time

uPlot chart will show altitude changes over time

Two-Line Element Set

1 58243U 23171P 25304.61471103 -.00000123 00000-0 59278-5 0 9996
2 58243 43.0019 266.9786 0000779 282.4435 77.6320 15.02534806110210
Epoch: Oct 31, 2025 • Age: 6 hours

Current Status

Altitude 571.9 km
Velocity 7.58 km/s
Sub-Earth Point -43.13°S, 178.21°W
Launch Date Nov 8, 2023
Age 1.9 years
Type internet

Technical Details

Classification Payload
Mass 730.00 kg
Dry Mass 700.00 kg
Total Mass 730.00 kg
Length 0.30 m
Diameter 4.10 m
Span 29.00 m
Shape Box + pan
Manufacturer SPXS
Bus Type Starlink V2M
Phase Status In Orbit
Owner/State SPXS/US

Large Constellations

Loading constellations...